Location: D�derode
(51.8092°N, 10.1065°E)
Time: 22:37:21
(UTC+00:00)

Cosmos 1812 - Pass Details

Date: 21 April 2021
Orbit: 516 x 519 km, 82.5° (Epoch: 13 May)

Event Time Altitude Azimuth Distance (km) Brightness Sun altitude
Exits shadow 00:16:46 29° 309° (NW) 989 4.3 -25.1°
Drops below altitude 10° 00:19:36 10° 352° (N) 1,767 6.3 -25.0°
Sets 00:21:56 0° 4° (N) 2,661 7.6 -24.8°
